weather.gov     
National Weather Service

Regional Weather Roundup
NWS Homepage
This page is being discontinued on March 12, 2014.
The same data is available at this site. Please update your bookmarks.
Thank you, and we apologize for the inconvenience.
Please send an email to SR-SRH.Webmaster@noaa.gov with any concerns.


Current Version
Previous Version:    01  02  03  04  05  06  07  08  09  10  11  12  13  14  15  16  17  18  19  20  21  22  23  24  25  26  27  28  29  30  
   31  32  33  34  35  36  37  38  39  40  41  42  43  44  45  46  47  48  49  50  51  52  53  
[Printable]
851
ASUS43 KTOP 251008
RWRKS

WEATHER ROUNDUP FOR KANSAS
NATIONAL WEATHER SERVICE GOODLAND KS
500 AM CDT SAT OCT 25 2014

NOTE:  "FAIR" INDICATES FEW OR NO CLOUDS BELOW 12,000 FEET WITH NO
SIGNIFICANT WEATHER AND/OR OBSTRUCTIONS TO VISIBILITY.

KSZ001>006-013>018-027>032-041>047-251100-
NORTHWEST KANSAS

CITY           SKY/WX    TMP DP  RH WIND       PRES   REMARKS
GOODLAND       CLEAR     47  34  60 W7        30.12S
HAYS           CLEAR     48  43  81 CALM      30.05S
HILL CITY      CLEAR     46  40  79 W6        30.05F
RUSSELL        CLEAR     54  51  90 CALM      30.03S
$$

KSZ061>065-074>080-084>089-251100-
SOUTHWEST KANSAS

CITY           SKY/WX    TMP DP  RH WIND       PRES   REMARKS
DODGE CITY     CLEAR     62  46  55 W10       30.07S
ELKHART          N/A     62  39  42 SW8         N/A
GARDEN CITY    CLEAR     53  42  66 W8        30.07F
GREAT BEND     CLEAR     54  48  82 CALM      30.05R
LIBERAL        CLEAR     48  37  66 W7        30.11S
PRATT          CLEAR     55  54  94 W5        30.05S
$$

KSZ066>073-081>083-090>101-251100-
SOUTHEAST KANSAS

CITY           SKY/WX    TMP DP  RH WIND       PRES   REMARKS
CHANUTE        CLEAR     57  57 100 S5        30.03S FOG
COFFEYVILLE    CLEAR     58  57  97 SE5       30.04S FOG
HUTCHINSON     FOG       53  52  96 CALM      30.03S VSB 1/4
MEDICINE LODGE   N/A     53  53 100 N5        30.03S
NEWTON         CLEAR     57  54  88 NE3       30.06R
PARSONS        CLEAR     60  59  96 CALM      30.05S FOG
WICHITA INTL   FOG       56  54  93 CALM      30.03S VSB 1/4
WICHITA JABRA  FOG       56  56 100 S5        30.03S VSB 1/4
WICHITA MCCONL CLEAR     60  60 100 SE3       30.03S
WINFIELD       CLEAR     61  59  93 SE5       30.04R
$$

KSZ007>012-019>026-033>040-048>060-102>105-251100-
NORTHEAST KANSAS

CITY           SKY/WX    TMP DP  RH WIND       PRES   REMARKS
CONCORDIA      CLEAR     52  50  93 E3        30.03S
EMPORIA        FOG       58  58 100 CALM      30.03S VSB 3/4
LAWRENCE       FOG       51  50  96 NW3       30.02R VSB<1/4
MANHATTAN      FOG       51  51 100 CALM      30.02S VSB 1/4
MARYSVILLE     CLEAR     50  48  93 CALM      30.03S FOG
OLATHE IND     FOG       56  56 100 CALM      30.02S VSB 3/4
OLATHE EXE     FOG       57  57 100 CALM      30.01S VSB 1/4
SALINA         CLEAR     55  54  96 SW8       30.03S FOG
TOPEKA BILLARD FOG       54  54 100 CALM      30.02S VSB 1/4
TOPEKA FORBES  FOG       53  52  96 CALM      30.02S VSB 1/4
$$




U.S. Dept. of Commerce
NOAA National Weather Service
1325 East West Highway
Silver Spring, MD 20910
E-mail: w-nws.webmaster@noaa.gov
Page last modified: May 16, 2007
NATIONAL WEATHER SERVICE: for Safety, for Work, for Fun - FOR LIFE